| time (UTC) | temp F | wind direction | speed MPH | gust MPH | rain 1hr in | rain 24hr in | rain mn in | humidity % | barometer mb |
| 20260902005505 | 63 | 104 | 0.0 | 0.0 | 0.00 | 0.02 | 0.02 | 85 | 1016.7 |
| 20260902005011 | 63 | 104 | 0.0 | 0.0 | 0.00 | 0.02 | 0.02 | 85 | 1016.7 |
| 20260902004507 | 63 | 104 | 0.0 | 0.0 | 0.00 | 0.02 | 0.02 | 85 | 1016.7 |
| 20260902004003 | 64 | 104 | 0.0 | 0.0 | 0.00 | 0.02 | 0.02 | 85 | 1016.8 |
| 20260902003528 | 64 | 104 | 0.0 | 0.0 | 0.00 | 0.02 | 0.02 | 85 | 1016.8 |
| 20260902003020 | 64 | 104 | 0.0 | 0.0 | 0.00 | 0.02 | 0.02 | 85 | 1016.8 |
| 20260902002503 | 64 | 104 | 0.0 | 0.0 | 0.00 | 0.02 | 0.02 | 85 | 1016.9 |
| 20260902001006 | 64 | 104 | 0.0 | 0.0 | 0.00 | 0.02 | 0.02 | 85 | 1016.8 |
| 20260902000512 | 64 | 104 | 0.0 | 0.0 | 0.00 | 0.02 | 0.02 | 85 | 1016.7 |
| 20260902000025 | 64 | 104 | 0.0 | 0.0 | 0.00 | 0.02 | 0.02 | 85 | 1016.6 |
| 20260901235046 | 64 | 104 | 0.0 | 0.0 | 0.00 | 0.02 | 0.02 | 85 | 1016.6 |
| 20260901234518 | 64 | 104 | 0.0 | 0.0 | 0.00 | 0.02 | 0.02 | 85 | 1016.5 |
| 20260901234009 | 64 | 104 | 0.0 | 0.0 | 0.00 | 0.02 | 0.02 | 85 | 1016.4 |
| 20260901233503 | 64 | 104 | 0.0 | 2.0 | 0.00 | 0.02 | 0.02 | 85 | 1016.5 |
| 20260901233011 | 64 | 105 | 0.0 | 4.0 | 0.00 | 0.02 | 0.02 | 85 | 1016.4 |
| 20260901232513 | 64 | 105 | 0.0 | 4.0 | 0.00 | 0.02 | 0.02 | 85 | 1016.5 |
| 20260901232000 | 64 | 105 | 0.0 | 3.0 | 0.00 | 0.02 | 0.02 | 85 | 1016.4 |
| 20260901231507 | 64 | 96 | 0.0 | 3.0 | 0.00 | 0.02 | 0.02 | 85 | 1016.4 |
| 20260901231020 | 64 | 96 | 0.0 | 4.0 | 0.00 | 0.02 | 0.02 | 85 | 1016.3 |
| 20260901230506 | 64 | 112 | 1.0 | 5.0 | 0.00 | 0.02 | 0.02 | 84 | 1016.4 |
| 20260901225521 | 64 | 113 | 0.0 | 4.0 | 0.00 | 0.02 | 0.02 | 84 | 1016.4 |
| 20260901225002 | 64 | 115 | 0.0 | 4.0 | 0.00 | 0.02 | 0.02 | 84 | 1016.4 |
| 20260901224024 | 65 | 117 | 0.0 | 4.0 | 0.00 | 0.02 | 0.02 | 84 | 1016.3 |
| 20260901223502 | 65 | 167 | 0.0 | 1.0 | 0.00 | 0.02 | 0.02 | 84 | 1016.4 |
| 20260901223020 | 65 | 168 | 0.0 | 1.0 | 0.00 | 0.02 | 0.02 | 84 | 1016.5 |
| 20260901222519 | 65 | 168 | 0.0 | 2.0 | 0.00 | 0.02 | 0.02 | 84 | 1016.5 |
| 20260901221505 | 65 | 168 | 1.0 | 5.0 | 0.00 | 0.02 | 0.02 | 84 | 1016.6 |
| 20260901220515 | 65 | 134 | 0.0 | 1.0 | 0.00 | 0.02 | 0.02 | 84 | 1016.6 |
| 20260901220008 | 65 | 134 | 1.0 | 4.0 | 0.00 | 0.02 | 0.02 | 84 | 1016.7 |
| 20260901215500 | 65 | 134 | 1.0 | 4.0 | 0.00 | 0.02 | 0.02 | 84 | 1016.7 |
| 20260901215000 | 65 | 134 | 0.0 | 0.0 | 0.00 | 0.02 | 0.02 | 84 | 1016.6 |
| 20260901214504 | 65 | 134 | 0.0 | 0.0 | 0.00 | 0.02 | 0.02 | 84 | 1016.7 |
| 20260901214031 | 65 | 134 | 0.0 | 0.0 | 0.00 | 0.02 | 0.02 | 84 | 1016.7 |
| 20260901213459 | 65 | 134 | 0.0 | 0.0 | 0.00 | 0.02 | 0.02 | 83 | 1016.7 |
| 20260901213005 | 65 | 134 | 0.0 | 2.0 | 0.00 | 0.02 | 0.02 | 83 | 1016.6 |
| 20260901212503 | 65 | 134 | 0.0 | 2.0 | 0.00 | 0.02 | 0.02 | 83 | 1016.5 |
| 20260901212007 | 65 | 134 | 1.0 | 2.0 | 0.00 | 0.02 | 0.02 | 84 | 1016.4 |
| 20260901211504 | 65 | 134 | 1.0 | 3.0 | 0.00 | 0.02 | 0.02 | 84 | 1016.4 |
| 20260901211006 | 65 | 134 | 1.0 | 4.0 | 0.00 | 0.02 | 0.02 | 84 | 1016.4 |
| 20260901210502 | 65 | 132 | 1.0 | 3.0 | 0.00 | 0.02 | 0.02 | 84 | 1016.3 |
| 20260901210008 | 65 | 132 | 1.0 | 4.0 | 0.00 | 0.02 | 0.02 | 84 | 1016.2 |
| 20260901205507 | 66 | 132 | 1.0 | 4.0 | 0.00 | 0.02 | 0.02 | 84 | 1016.2 |
| 20260901205010 | 65 | 132 | 0.0 | 2.0 | 0.00 | 0.02 | 0.02 | 84 | 1016.2 |
| 20260901204506 | 65 | 132 | 1.0 | 5.0 | 0.00 | 0.02 | 0.02 | 84 | 1016.1 |
| 20260901203510 | 65 | 209 | 0.0 | 4.0 | 0.00 | 0.02 | 0.02 | 84 | 1016.0 |
| 20260901203027 | 65 | 202 | 1.0 | 5.0 | 0.00 | 0.02 | 0.02 | 84 | 1015.9 |
| 20260901202010 | 65 | 157 | 0.0 | 2.0 | 0.00 | 0.02 | 0.02 | 83 | 1015.9 |
| 20260901201505 | 65 | 224 | 0.0 | 5.0 | 0.00 | 0.02 | 0.02 | 83 | 1015.8 |
| 20260901201017 | 65 | 224 | 1.0 | 5.0 | 0.00 | 0.02 | 0.02 | 83 | 1015.8 |
| 20260901200510 | 65 | 132 | 1.0 | 4.0 | 0.00 | 0.02 | 0.02 | 83 | 1015.9 |
| 20260901200029 | 65 | 110 | 0.0 | 2.0 | 0.00 | 0.02 | 0.02 | 83 | 1015.9 |
| 20260901195515 | 65 | 110 | 1.0 | 5.0 | 0.00 | 0.02 | 0.02 | 83 | 1015.9 |
| 20260901194500 | 66 | 165 | 2.0 | 5.0 | 0.01 | 0.02 | 0.02 | 82 | 1015.7 |
| 20260901194000 | 66 | 173 | 1.0 | 5.0 | 0.01 | 0.02 | 0.02 | 82 | 1015.7 |
| 20260901193515 | 66 | 197 | 1.0 | 5.0 | 0.01 | 0.02 | 0.02 | 81 | 1015.8 |
| 20260901193004 | 66 | 228 | 2.0 | 5.0 | 0.01 | 0.02 | 0.02 | 81 | 1015.9 |
| 20260901192505 | 66 | 163 | 2.0 | 6.0 | 0.02 | 0.02 | 0.02 | 81 | 1015.8 |
| 20260901192000 | 66 | 140 | 2.0 | 6.0 | 0.02 | 0.02 | 0.02 | 81 | 1015.7 |
| 20260901191022 | 66 | 162 | 2.0 | 5.0 | 0.02 | 0.02 | 0.02 | 80 | 1015.8 |
| 20260901190501 | 66 | 200 | 2.0 | 5.0 | 0.02 | 0.02 | 0.02 | 80 | 1015.8 |
| 20260901190000 | 67 | 227 | 1.0 | 5.0 | 0.02 | 0.02 | 0.02 | 79 | 1015.7 |
| 20260901185027 | 67 | 169 | 1.0 | 5.0 | 0.02 | 0.02 | 0.02 | 79 | 1015.8 |
| 20260901184506 | 67 | 214 | 2.0 | 5.0 | 0.01 | 0.01 | 0.01 | 78 | 1015.8 |
| 20260901184027 | 67 | 221 | 2.0 | 5.0 | 0.01 | 0.01 | 0.01 | 78 | 1015.7 |
| 20260901183506 | 67 | 219 | 2.0 | 5.0 | 0.01 | 0.01 | 0.01 | 76 | 1015.6 |
| 20260901183027 | 67 | 205 | 2.0 | 5.0 | 0.00 | 0.00 | 0.00 | 75 | 1015.5 |
| 20260901182501 | 68 | 139 | 2.0 | 5.0 | 0.00 | 0.00 | 0.00 | 74 | 1015.5 |
| 20260901182010 | 68 | 134 | 1.0 | 5.0 | 0.00 | 0.00 | 0.00 | 74 | 1015.5 |
| 20260901181507 | 68 | 206 | 1.0 | 5.0 | 0.00 | 0.00 | 0.00 | 73 | 1015.5 |
| 20260901181011 | 68 | 232 | 2.0 | 6.0 | 0.00 | 0.00 | 0.00 | 71 | 1015.5 |
| 20260901180509 | 69 | 174 | 3.0 | 7.0 | 0.00 | 0.00 | 0.00 | 71 | 1015.6 |
| 20260901180006 | 69 | 139 | 4.0 | 9.0 | 0.00 | 0.00 | 0.00 | 70 | 1015.7 |
| 20260901175459 | 70 | 148 | 4.0 | 9.0 | 0.00 | 0.00 | 0.00 | 68 | 1015.6 |
| 20260901174500 | 71 | 158 | 5.0 | 9.0 | 0.00 | 0.00 | 0.00 | 67 | 1015.6 |
| 20260901174002 | 71 | 135 | 5.0 | 9.0 | 0.00 | 0.00 | 0.00 | 67 | 1015.5 |
| 20260901173527 | 71 | 167 | 4.0 | 8.0 | 0.00 | 0.00 | 0.00 | 65 | 1015.5 |
| 20260901173029 | 71 | 160 | 4.0 | 8.0 | 0.00 | 0.00 | 0.00 | 66 | 1015.6 |
| 20260901172506 | 71 | 114 | 5.0 | 10.0 | 0.00 | 0.00 | 0.00 | 63 | 1015.6 |
| 20260901172002 | 71 | 140 | 5.0 | 10.0 | 0.00 | 0.00 | 0.00 | 61 | 1015.7 |
| 20260901171458 | 71 | 125 | 4.0 | 9.0 | 0.00 | 0.00 | 0.00 | 66 | 1015.6 |
| 20260901171007 | 72 | 208 | 4.0 | 7.0 | 0.00 | 0.00 | 0.00 | 69 | 1015.6 |
| 20260901170509 | 72 | 126 | 3.0 | 8.0 | 0.00 | 0.00 | 0.00 | 71 | 1015.5 |
| 20260901170027 | 72 | 130 | 3.0 | 8.0 | 0.00 | 0.00 | 0.00 | 71 | 1015.3 |
| 20260901165020 | 72 | 213 | 4.0 | 9.0 | 0.00 | 0.00 | 0.00 | 70 | 1015.2 |
| 20260901164505 | 72 | 115 | 5.0 | 9.0 | 0.00 | 0.00 | 0.00 | 70 | 1014.9 |
| 20260901164000 | 73 | 165 | 5.0 | 9.0 | 0.00 | 0.00 | 0.00 | 71 | 1015.1 |
| 20260901163507 | 73 | 148 | 5.0 | 9.0 | 0.00 | 0.00 | 0.00 | 70 | 1015.2 |
| 20260901163007 | 73 | 170 | 5.0 | 9.0 | 0.00 | 0.00 | 0.00 | 70 | 1015.3 |
| 20260901162501 | 73 | 138 | 4.0 | 9.0 | 0.00 | 0.00 | 0.00 | 69 | 1015.2 |
| 20260901161959 | 73 | 164 | 4.0 | 7.0 | 0.00 | 0.00 | 0.00 | 68 | 1015.3 |
| 20260901161459 | 73 | 137 | 4.0 | 7.0 | 0.00 | 0.00 | 0.00 | 68 | 1015.4 |
| 20260901161004 | 73 | 150 | 4.0 | 7.0 | 0.00 | 0.00 | 0.00 | 67 | 1015.4 |
| 20260901160007 | 73 | 140 | 3.0 | 7.0 | 0.00 | 0.00 | 0.00 | 70 | 1015.5 |
| 20260901155458 | 73 | 121 | 4.0 | 8.0 | 0.00 | 0.00 | 0.00 | 71 | 1015.5 |
| 20260901155004 | 73 | 154 | 4.0 | 8.0 | 0.00 | 0.00 | 0.00 | 71 | 1015.5 |
| 20260901154530 | 73 | 170 | 4.0 | 7.0 | 0.00 | 0.00 | 0.00 | 72 | 1015.4 |
| 20260901154025 | 73 | 141 | 4.0 | 7.0 | 0.00 | 0.00 | 0.00 | 73 | 1015.6 |
| 20260901153503 | 73 | 152 | 4.0 | 7.0 | 0.00 | 0.00 | 0.00 | 73 | 1015.5 |
| 20260901153002 | 73 | 126 | 4.0 | 7.0 | 0.00 | 0.00 | 0.00 | 74 | 1015.5 |
| 20260901152512 | 73 | 160 | 4.0 | 7.0 | 0.00 | 0.00 | 0.00 | 75 | 1015.7 |
| 20260901152008 | 73 | 99 | 4.0 | 6.0 | 0.00 | 0.00 | 0.00 | 76 | 1015.8 |
| 20260901151506 | 73 | 114 | 3.0 | 7.0 | 0.00 | 0.00 | 0.00 | 78 | 1015.6 |
| 20260901151010 | 72 | 105 | 4.0 | 10.0 | 0.00 | 0.00 | 0.00 | 79 | 1015.6 |
| 20260901150502 | 72 | 118 | 5.0 | 10.0 | 0.00 | 0.00 | 0.00 | 79 | 1015.6 |
| 20260901150021 | 72 | 178 | 4.0 | 10.0 | 0.00 | 0.00 | 0.00 | 80 | 1015.7 |
| 20260901145519 | 72 | 153 | 4.0 | 8.0 | 0.00 | 0.00 | 0.00 | 81 | 1015.6 |
| 20260901144506 | 71 | 132 | 4.0 | 10.0 | 0.00 | 0.00 | 0.00 | 83 | 1015.9 |
| 20260901144002 | 70 | 146 | 4.0 | 10.0 | 0.00 | 0.00 | 0.00 | 83 | 1015.9 |
| 20260901143032 | 70 | 168 | 2.0 | 5.0 | 0.00 | 0.00 | 0.00 | 83 | 1015.9 |
| 20260901142502 | 70 | 126 | 1.0 | 5.0 | 0.00 | 0.00 | 0.00 | 83 | 1015.7 |
| 20260901142011 | 70 | 145 | 0.0 | 1.0 | 0.00 | 0.00 | 0.00 | 84 | 1015.8 |
| 20260901141500 | 69 | 145 | 0.0 | 0.0 | 0.00 | 0.00 | 0.00 | 83 | 1016.0 |
| 20260901140459 | 69 | 145 | 0.0 | 0.0 | 0.00 | 0.00 | 0.00 | 82 | 1016.0 |
| 20260901140008 | 69 | 145 | 0.0 | 0.0 | 0.00 | 0.00 | 0.00 | 82 | 1016.1 |
| 20260901135513 | 69 | 145 | 0.0 | 0.0 | 0.00 | 0.00 | 0.00 | 82 | 1016.0 |
| 20260901135004 | 69 | 145 | 0.0 | 1.0 | 0.00 | 0.00 | 0.00 | 82 | 1016.0 |
| 20260901134519 | 69 | 145 | 0.0 | 1.0 | 0.00 | 0.00 | 0.00 | 82 | 1016.0 |
| 20260901134002 | 69 | 145 | 0.0 | 2.0 | 0.00 | 0.00 | 0.00 | 82 | 1015.9 |
| 20260901133517 | 69 | 145 | 0.0 | 2.0 | 0.00 | 0.00 | 0.00 | 82 | 1016.1 |
| 20260901133006 | 69 | 145 | 0.0 | 2.0 | 0.00 | 0.00 | 0.00 | 82 | 1016.0 |
| 20260901132509 | 69 | 145 | 0.0 | 1.0 | 0.00 | 0.00 | 0.00 | 82 | 1016.0 |
| 20260901131959 | 69 | 145 | 1.0 | 4.0 | 0.00 | 0.00 | 0.00 | 82 | 1015.9 |
| 20260901131501 | 69 | 145 | 1.0 | 4.0 | 0.00 | 0.00 | 0.00 | 82 | 1015.8 |
| 20260901131009 | 69 | 146 | 1.0 | 3.0 | 0.00 | 0.00 | 0.00 | 83 | 1015.9 |
| 20260901130503 | 69 | 146 | 0.0 | 2.0 | 0.00 | 0.00 | 0.00 | 83 | 1015.9 |
| 20260901130002 | 68 | 146 | 0.0 | 2.0 | 0.00 | 0.00 | 0.00 | 82 | 1016.0 |
| 20260901125003 | 68 | 146 | 2.0 | 4.0 | 0.00 | 0.00 | 0.00 | 83 | 1015.9 |
| 20260901124502 | 68 | 146 | 1.0 | 4.0 | 0.00 | 0.00 | 0.00 | 83 | 1015.9 |
| 20260901123959 | 68 | 144 | 0.0 | 2.0 | 0.00 | 0.00 | 0.00 | 83 | 1016.0 |
| 20260901123514 | 68 | 144 | 0.0 | 2.0 | 0.00 | 0.00 | 0.00 | 83 | 1016.0 |
| 20260901123002 | 68 | 144 | 0.0 | 2.0 | 0.00 | 0.00 | 0.00 | 83 | 1015.9 |
| 20260901122458 | 68 | 144 | 0.0 | 2.0 | 0.00 | 0.00 | 0.00 | 83 | 1015.8 |
| 20260901122005 | 68 | 144 | 0.0 | 2.0 | 0.00 | 0.00 | 0.00 | 83 | 1015.8 |
| 20260901121523 | 68 | 144 | 1.0 | 4.0 | 0.00 | 0.00 | 0.00 | 83 | 1015.8 |
| 20260901121006 | 67 | 144 | 2.0 | 6.0 | 0.00 | 0.00 | 0.00 | 83 | 1015.7 |
| 20260901120502 | 67 | 135 | 2.0 | 6.0 | 0.00 | 0.00 | 0.00 | 84 | 1015.7 |
| 20260901120038 | 67 | 126 | 1.0 | 5.0 | 0.00 | 0.00 | 0.00 | 84 | 1015.7 |
| 20260901115501 | 67 | 154 | 0.0 | 0.0 | 0.00 | 0.00 | 0.00 | 85 | 1015.8 |
| 20260901115001 | 67 | 154 | 0.0 | 0.0 | 0.00 | 0.00 | 0.00 | 85 | 1015.9 |
| 20260901114506 | 67 | 185 | 0.0 | 0.0 | 0.00 | 0.00 | 0.00 | 85 | 1015.9 |
| 20260901114004 | 67 | 187 | 0.0 | 0.0 | 0.00 | 0.00 | 0.00 | 85 | 1015.7 |
| 20260901113501 | 67 | 187 | 0.0 | 0.0 | 0.00 | 0.00 | 0.00 | 86 | 1015.7 |
| 20260901112959 | 66 | 187 | 0.0 | 0.0 | 0.00 | 0.00 | 0.00 | 86 | 1015.6 |
| 20260901112001 | 66 | 187 | 0.0 | 0.0 | 0.00 | 0.00 | 0.00 | 85 | 1015.6 |
| 20260901111500 | 66 | 187 | 0.0 | 0.0 | 0.00 | 0.00 | 0.00 | 85 | 1015.6 |
| 20260901110508 | 66 | 187 | 0.0 | 0.0 | 0.00 | 0.00 | 0.00 | 85 | 1015.5 |
| 20260901110001 | 66 | 187 | 0.0 | 0.0 | 0.00 | 0.00 | 0.00 | 85 | 1015.5 |
| 20260901105504 | 66 | 187 | 0.0 | 0.0 | 0.00 | 0.00 | 0.00 | 85 | 1015.5 |
| 20260901105012 | 66 | 187 | 0.0 | 0.0 | 0.00 | 0.00 | 0.00 | 85 | 1015.4 |
| 20260901104502 | 66 | 187 | 0.0 | 0.0 | 0.00 | 0.00 | 0.00 | 85 | 1015.4 |
| 20260901104005 | 66 | 187 | 0.0 | 0.0 | 0.00 | 0.00 | 0.00 | 85 | 1015.5 |
| 20260901103458 | 66 | 187 | 0.0 | 0.0 | 0.00 | 0.00 | 0.00 | 85 | 1015.4 |
| 20260901103002 | 66 | 187 | 0.0 | 0.0 | 0.00 | 0.00 | 0.00 | 85 | 1015.3 |
| 20260901102544 | 66 | 187 | 0.0 | 0.0 | 0.00 | 0.00 | 0.00 | 85 | 1015.2 |
| 20260901101959 | 66 | 187 | 0.0 | 0.0 | 0.00 | 0.00 | 0.00 | 84 | 1015.2 |
| 20260901101458 | 66 | 187 | 0.0 | 0.0 | 0.00 | 0.00 | 0.00 | 84 | 1015.2 |
| 20260901101005 | 66 | 187 | 0.0 | 0.0 | 0.00 | 0.00 | 0.00 | 84 | 1015.2 |
| 20260901100519 | 66 | 187 | 0.0 | 0.0 | 0.00 | 0.00 | 0.00 | 84 | 1015.2 |
| 20260901095459 | 66 | 187 | 0.0 | 0.0 | 0.00 | 0.00 | 0.00 | 84 | 1015.2 |
| 20260901095002 | 66 | 187 | 0.0 | 0.0 | 0.00 | 0.00 | 0.00 | 84 | 1015.1 |
| 20260901094007 | 66 | 187 | 0.0 | 0.0 | 0.00 | 0.00 | 0.00 | 84 | 1015.2 |
| 20260901093504 | 66 | 187 | 0.0 | 0.0 | 0.00 | 0.00 | 0.00 | 84 | 1015.2 |
| 20260901092504 | 66 | 187 | 0.0 | 0.0 | 0.00 | 0.00 | 0.00 | 83 | 1015.1 |
| 20260901092023 | 66 | 187 | 0.0 | 0.0 | 0.00 | 0.00 | 0.00 | 83 | 1015.2 |
| 20260901091500 | 66 | 187 | 0.0 | 0.0 | 0.00 | 0.00 | 0.00 | 83 | 1015.2 |
| 20260901091032 | 66 | 187 | 0.0 | 0.0 | 0.00 | 0.00 | 0.00 | 83 | 1015.2 |
| 20260901090503 | 66 | 187 | 0.0 | 0.0 | 0.00 | 0.00 | 0.00 | 83 | 1015.2 |
| 20260901090009 | 66 | 187 | 0.0 | 0.0 | 0.00 | 0.00 | 0.00 | 83 | 1015.2 |
| 20260901085500 | 66 | 189 | 0.0 | 0.0 | 0.00 | 0.00 | 0.00 | 83 | 1015.2 |
| 20260901085031 | 66 | 189 | 0.0 | 0.0 | 0.00 | 0.00 | 0.00 | 83 | 1015.2 |
| 20260901084459 | 66 | 188 | 0.0 | 0.0 | 0.00 | 0.00 | 0.00 | 83 | 1015.4 |
| 20260901084001 | 66 | 188 | 0.0 | 0.0 | 0.00 | 0.00 | 0.00 | 83 | 1015.5 |
| 20260901082026 | 66 | 188 | 0.0 | 0.0 | 0.00 | 0.00 | 0.00 | 83 | 1015.8 |
| 20260901081525 | 66 | 188 | 0.0 | 0.0 | 0.00 | 0.00 | 0.00 | 83 | 1015.9 |
| 20260901080513 | 66 | 188 | 0.0 | 0.0 | 0.00 | 0.00 | 0.00 | 83 | 1015.7 |
| 20260901080033 | 66 | 186 | 0.0 | 0.0 | 0.00 | 0.00 | 0.00 | 83 | 1015.7 |
| 20260901075525 | 66 | 186 | 0.0 | 0.0 | 0.00 | 0.00 | 0.00 | 83 | 1015.7 |
| 20260901075006 | 66 | 186 | 0.0 | 0.0 | 0.00 | 0.00 | 0.00 | 83 | 1015.7 |
| 20260901074016 | 66 | 217 | 0.0 | 0.0 | 0.00 | 0.00 | 0.00 | 83 | 1015.7 |
| 20260901073505 | 66 | 153 | 0.0 | 0.0 | 0.00 | 0.00 | 0.00 | 83 | 1015.8 |
| 20260901072514 | 66 | 209 | 0.0 | 0.0 | 0.00 | 0.00 | 0.00 | 83 | 1015.9 |
| 20260901072000 | 66 | 210 | 0.0 | 0.0 | 0.00 | 0.00 | 0.00 | 83 | 1015.9 |
| 20260901071507 | 66 | 210 | 0.0 | 4.0 | 0.00 | 0.00 | 0.00 | 83 | 1015.9 |
| 20260901070459 | 66 | 206 | 0.0 | 1.0 | 0.00 | 0.00 | 0.00 | 83 | 1016.0 |
| 20260901065524 | 66 | 207 | 1.0 | 4.0 | 0.00 | 0.00 | 0.00 | 83 | 1016.1 |
| 20260901064959 | 66 | 207 | 1.0 | 4.0 | 0.00 | 0.00 | 0.00 | 83 | 1016.2 |
| 20260901064514 | 66 | 207 | 0.0 | 2.0 | 0.00 | 0.00 | 0.00 | 83 | 1016.2 |
| 20260901064028 | 66 | 190 | 0.0 | 0.0 | 0.00 | 0.00 | 0.00 | 83 | 1016.1 |
| 20260901063508 | 66 | 219 | 0.0 | 0.0 | 0.00 | 0.00 | 0.00 | 83 | 1016.3 |
| 20260901063002 | 66 | 219 | 0.0 | 4.0 | 0.00 | 0.00 | 0.00 | 83 | 1016.3 |
| 20260901062005 | 66 | 202 | 1.0 | 5.0 | 0.00 | 0.00 | 0.00 | 83 | 1016.1 |
| 20260901060014 | 66 | 198 | 1.0 | 6.0 | 0.00 | 0.00 | 0.00 | 83 | 1016.0 |
| 20260901055509 | 66 | 135 | 1.0 | 6.0 | 0.00 | 0.01 | 0.00 | 83 | 1016.0 |
| 20260901055003 | 66 | 219 | 1.0 | 4.0 | 0.00 | 0.01 | 0.00 | 83 | 1016.1 |
| 20260901054513 | 66 | 226 | 1.0 | 4.0 | 0.00 | 0.01 | 0.00 | 83 | 1016.2 |
| 20260901054018 | 66 | 169 | 1.0 | 4.0 | 0.00 | 0.01 | 0.00 | 83 | 1016.2 |
| 20260901053503 | 66 | 189 | 1.0 | 5.0 | 0.00 | 0.01 | 0.00 | 83 | 1016.2 |
| 20260901052501 | 66 | 221 | 1.0 | 5.0 | 0.00 | 0.01 | 0.00 | 83 | 1016.4 |
| 20260901052000 | 66 | 158 | 1.0 | 4.0 | 0.00 | 0.01 | 0.00 | 83 | 1016.4 |
| 20260901051503 | 66 | 215 | 1.0 | 6.0 | 0.00 | 0.01 | 0.00 | 83 | 1016.4 |
| 20260901051006 | 66 | 185 | 1.0 | 6.0 | 0.00 | 0.01 | 0.00 | 83 | 1016.2 |
| 20260901050505 | 66 | 202 | 1.0 | 5.0 | 0.00 | 0.01 | 0.00 | 83 | 1016.2 |
| 20260901050028 | 66 | 220 | 2.0 | 6.0 | 0.00 | 0.01 | 0.00 | 83 | 1016.2 |
| 20260901045458 | 66 | 216 | 2.0 | 7.0 | 0.00 | 0.32 | 0.00 | 83 | 1016.2 |
| 20260901045004 | 66 | 212 | 2.0 | 7.0 | 0.00 | 0.32 | 0.00 | 84 | 1016.2 |
| 20260901044459 | 66 | 184 | 2.0 | 7.0 | 0.00 | 0.32 | 0.00 | 84 | 1016.3 |
| 20260901044002 | 66 | 184 | 1.0 | 5.0 | 0.00 | 0.32 | 0.00 | 84 | 1016.3 |
| 20260901043458 | 66 | 170 | 1.0 | 4.0 | 0.00 | 0.32 | 0.00 | 84 | 1016.4 |
| 20260901042534 | 66 | 235 | 0.0 | 5.0 | 0.00 | 0.32 | 0.00 | 84 | 1016.5 |
| 20260901042003 | 66 | 209 | 1.0 | 6.0 | 0.00 | 0.32 | 0.00 | 84 | 1016.5 |
| 20260901041503 | 66 | 178 | 1.0 | 6.0 | 0.00 | 0.32 | 0.00 | 84 | 1016.5 |
| 20260901041006 | 66 | 240 | 1.0 | 6.0 | 0.00 | 0.32 | 0.00 | 84 | 1016.5 |
| 20260901040502 | 66 | 171 | 1.0 | 6.0 | 0.00 | 0.32 | 0.00 | 84 | 1016.5 |
| 20260901040009 | 66 | 205 | 1.0 | 6.0 | 0.00 | 0.32 | 0.00 | 84 | 1016.6 |
| 20260901035459 | 66 | 182 | 1.0 | 5.0 | 0.00 | 0.95 | 0.32 | 84 | 1016.6 |
| 20260901035004 | 66 | 149 | 1.0 | 5.0 | 0.00 | 0.95 | 0.32 | 84 | 1016.6 |
| 20260901033505 | 66 | 238 | 0.0 | 5.0 | 0.00 | 0.95 | 0.32 | 84 | 1016.6 |
| 20260901033020 | 66 | 207 | 1.0 | 5.0 | 0.00 | 0.95 | 0.32 | 84 | 1016.6 |
| 20260901032502 | 66 | 173 | 1.0 | 6.0 | 0.00 | 0.95 | 0.32 | 84 | 1016.6 |
| 20260901032007 | 66 | 189 | 1.0 | 6.0 | 0.00 | 0.95 | 0.32 | 84 | 1016.6 |
| 20260901031024 | 66 | 178 | 1.0 | 5.0 | 0.00 | 0.95 | 0.32 | 84 | 1016.6 |
| 20260901025001 | 66 | 179 | 1.0 | 5.0 | 0.00 | 0.95 | 0.32 | 83 | 1016.6 |
| 20260901024518 | 66 | 180 | 1.0 | 3.0 | 0.00 | 0.95 | 0.32 | 83 | 1016.6 |
| 20260901023500 | 66 | 142 | 1.0 | 6.0 | 0.00 | 0.95 | 0.32 | 82 | 1016.7 |
| 20260901023021 | 66 | 204 | 0.0 | 4.0 | 0.00 | 0.95 | 0.32 | 82 | 1016.8 |
| 20260901022523 | 66 | 207 | 1.0 | 5.0 | 0.00 | 0.95 | 0.32 | 82 | 1016.8 |
| 20260901022000 | 66 | 192 | 1.0 | 5.0 | 0.00 | 0.95 | 0.32 | 81 | 1016.8 |
| 20260901021507 | 66 | 188 | 1.0 | 5.0 | 0.00 | 0.95 | 0.32 | 81 | 1016.8 |
| 20260901021000 | 66 | 197 | 1.0 | 4.0 | 0.00 | 0.95 | 0.32 | 80 | 1016.9 |
| 20260901020512 | 66 | 203 | 1.0 | 4.0 | 0.00 | 0.95 | 0.32 | 80 | 1016.9 |
| 20260901020021 | 67 | 176 | 1.0 | 4.0 | 0.00 | 0.95 | 0.32 | 80 | 1016.8 |
| 20260901014458 | 67 | 175 | 0.0 | 1.0 | 0.00 | 0.95 | 0.32 | 79 | 1016.9 |
| 20260901014006 | 67 | 175 | 0.0 | 2.0 | 0.00 | 0.95 | 0.32 | 79 | 1016.8 |
| 20260901013505 | 67 | 175 | 1.0 | 4.0 | 0.00 | 0.95 | 0.32 | 79 | 1016.9 |
| 20260901013006 | 67 | 173 | 1.0 | 5.0 | 0.00 | 0.95 | 0.32 | 79 | 1016.9 |
| 20260901012504 | 67 | 172 | 1.0 | 5.0 | 0.00 | 0.95 | 0.32 | 79 | 1016.9 |
| 20260901012010 | 67 | 185 | 1.0 | 4.0 | 0.00 | 0.95 | 0.32 | 79 | 1016.8 |
| 20260901011513 | 67 | 216 | 2.0 | 6.0 | 0.00 | 0.95 | 0.32 | 79 | 1016.8 |
| 20260901011033 | 67 | 136 | 2.0 | 6.0 | 0.00 | 0.95 | 0.32 | 78 | 1016.8 |
| 20260901010014 | 67 | 136 | 2.0 | 8.0 | 0.00 | 0.95 | 0.32 | 78 | 1016.8 |